Index of /20260505/WXO-DD/model_gdps/15km/00/090
Name Last modified Size Description
Parent Directory -
20260505T00Z_MSC_GDPS_AbsoluteVorticity_IsbL-0200_LatLon0.15_PT090H.grib2 2026-05-05 04:26 1.2M
20260505T00Z_MSC_GDPS_AbsoluteVorticity_IsbL-0250_LatLon0.15_PT090H.grib2 2026-05-05 04:26 1.3M
20260505T00Z_MSC_GDPS_AbsoluteVorticity_IsbL-0500_LatLon0.15_PT090H.grib2 2026-05-05 04:26 1.2M
20260505T00Z_MSC_GDPS_AbsoluteVorticity_IsbL-0700_LatLon0.15_PT090H.grib2 2026-05-05 04:26 1.3M
20260505T00Z_MSC_GDPS_AbsoluteVorticity_IsbL-0850_LatLon0.15_PT090H.grib2 2026-05-05 04:26 1.6M
20260505T00Z_MSC_GDPS_AirTemp-Max_AGL-2m_LatLon0.15_PT090H.grib2 2026-05-05 04:26 744K
20260505T00Z_MSC_GDPS_AirTemp-Min_AGL-2m_LatLon0.15_PT090H.grib2 2026-05-05 04:26 792K
20260505T00Z_MSC_GDPS_AirTemp_AGL-120m_LatLon0.15_PT090H.grib2 2026-05-05 04:26 910K
20260505T00Z_MSC_GDPS_AirTemp_AGL-2m_LatLon0.15_PT090H.grib2 2026-05-05 04:26 1.0M
20260505T00Z_MSC_GDPS_AirTemp_AGL-40m_LatLon0.15_PT090H.grib2 2026-05-05 04:26 813K
20260505T00Z_MSC_GDPS_AirTemp_AGL-80m_LatLon0.15_PT090H.grib2 2026-05-05 04:26 801K
20260505T00Z_MSC_GDPS_AirTemp_IsbL-0001_LatLon0.15_PT090H.grib2 2026-05-05 04:26 669K
20260505T00Z_MSC_GDPS_AirTemp_IsbL-0005_LatLon0.15_PT090H.grib2 2026-05-05 04:26 705K
20260505T00Z_MSC_GDPS_AirTemp_IsbL-0010_LatLon0.15_PT090H.grib2 2026-05-05 04:26 705K
20260505T00Z_MSC_GDPS_AirTemp_IsbL-0020_LatLon0.15_PT090H.grib2 2026-05-05 04:26 792K
20260505T00Z_MSC_GDPS_AirTemp_IsbL-0030_LatLon0.15_PT090H.grib2 2026-05-05 04:26 842K
20260505T00Z_MSC_GDPS_AirTemp_IsbL-0050_LatLon0.15_PT090H.grib2 2026-05-05 04:26 807K
20260505T00Z_MSC_GDPS_AirTemp_IsbL-0100_LatLon0.15_PT090H.grib2 2026-05-05 04:26 963K
20260505T00Z_MSC_GDPS_AirTemp_IsbL-0150_LatLon0.15_PT090H.grib2 2026-05-05 04:26 1.0M
20260505T00Z_MSC_GDPS_AirTemp_IsbL-0175_LatLon0.15_PT090H.grib2 2026-05-05 04:26 1.0M
20260505T00Z_MSC_GDPS_AirTemp_IsbL-0200_LatLon0.15_PT090H.grib2 2026-05-05 04:26 967K
20260505T00Z_MSC_GDPS_AirTemp_IsbL-0225_LatLon0.15_PT090H.grib2 2026-05-05 04:26 967K
20260505T00Z_MSC_GDPS_AirTemp_IsbL-0250_LatLon0.15_PT090H.grib2 2026-05-05 04:26 1.0M
20260505T00Z_MSC_GDPS_AirTemp_IsbL-0275_LatLon0.15_PT090H.grib2 2026-05-05 04:26 1.0M
20260505T00Z_MSC_GDPS_AirTemp_IsbL-0300_LatLon0.15_PT090H.grib2 2026-05-05 04:26 1.0M
20260505T00Z_MSC_GDPS_AirTemp_IsbL-0350_LatLon0.15_PT090H.grib2 2026-05-05 04:26 928K
20260505T00Z_MSC_GDPS_AirTemp_IsbL-0400_LatLon0.15_PT090H.grib2 2026-05-05 04:26 943K
20260505T00Z_MSC_GDPS_AirTemp_IsbL-0450_LatLon0.15_PT090H.grib2 2026-05-05 04:26 968K
20260505T00Z_MSC_GDPS_AirTemp_IsbL-0500_LatLon0.15_PT090H.grib2 2026-05-05 04:26 1.0M
20260505T00Z_MSC_GDPS_AirTemp_IsbL-0550_LatLon0.15_PT090H.grib2 2026-05-05 04:26 806K
20260505T00Z_MSC_GDPS_AirTemp_IsbL-0600_LatLon0.15_PT090H.grib2 2026-05-05 04:26 894K
20260505T00Z_MSC_GDPS_AirTemp_IsbL-0650_LatLon0.15_PT090H.grib2 2026-05-05 04:26 924K
20260505T00Z_MSC_GDPS_AirTemp_IsbL-0700_LatLon0.15_PT090H.grib2 2026-05-05 04:26 960K
20260505T00Z_MSC_GDPS_AirTemp_IsbL-0750_LatLon0.15_PT090H.grib2 2026-05-05 04:26 1.0M
20260505T00Z_MSC_GDPS_AirTemp_IsbL-0800_LatLon0.15_PT090H.grib2 2026-05-05 04:26 1.1M
20260505T00Z_MSC_GDPS_AirTemp_IsbL-0850_LatLon0.15_PT090H.grib2 2026-05-05 04:26 1.1M
20260505T00Z_MSC_GDPS_AirTemp_IsbL-0875_LatLon0.15_PT090H.grib2 2026-05-05 04:26 1.2M
20260505T00Z_MSC_GDPS_AirTemp_IsbL-0900_LatLon0.15_PT090H.grib2 2026-05-05 04:26 1.2M
20260505T00Z_MSC_GDPS_AirTemp_IsbL-0925_LatLon0.15_PT090H.grib2 2026-05-05 04:26 1.1M
20260505T00Z_MSC_GDPS_AirTemp_IsbL-0950_LatLon0.15_PT090H.grib2 2026-05-05 04:26 1.1M
20260505T00Z_MSC_GDPS_AirTemp_IsbL-0970_LatLon0.15_PT090H.grib2 2026-05-05 04:26 1.2M
20260505T00Z_MSC_GDPS_AirTemp_IsbL-0985_LatLon0.15_PT090H.grib2 2026-05-05 04:26 1.1M
20260505T00Z_MSC_GDPS_AirTemp_IsbL-1000_LatLon0.15_PT090H.grib2 2026-05-05 04:26 1.1M
20260505T00Z_MSC_GDPS_AirTemp_IsbL-1015_LatLon0.15_PT090H.grib2 2026-05-05 04:26 1.1M
20260505T00Z_MSC_GDPS_Albedo_Sfc_LatLon0.15_PT090H.grib2 2026-05-05 04:26 245K
20260505T00Z_MSC_GDPS_CAPE_Sfc_LatLon0.15_PT090H.grib2 2026-05-05 04:26 4.0M
20260505T00Z_MSC_GDPS_CIN_Sfc_LatLon0.15_PT090H.grib2 2026-05-05 04:26 2.8M
20260505T00Z_MSC_GDPS_CloudWater_EAtm_LatLon0.15_PT090H.grib2 2026-05-05 04:26 546K
20260505T00Z_MSC_GDPS_ConvectivePrecip-Accum_Sfc_LatLon0.15_PT090H.grib2 2026-05-05 04:26 3.3M
20260505T00Z_MSC_GDPS_DewPointDepression_AGL-2m_LatLon0.15_PT090H.grib2 2026-05-05 04:26 769K
20260505T00Z_MSC_GDPS_DewPointDepression_IsbL-0010_LatLon0.15_PT090H.grib2 2026-05-05 04:26 87K
20260505T00Z_MSC_GDPS_DewPointDepression_IsbL-0020_LatLon0.15_PT090H.grib2 2026-05-05 04:26 82K
20260505T00Z_MSC_GDPS_DewPointDepression_IsbL-0030_LatLon0.15_PT090H.grib2 2026-05-05 04:26 95K
20260505T00Z_MSC_GDPS_DewPointDepression_IsbL-0050_LatLon0.15_PT090H.grib2 2026-05-05 04:26 384K
20260505T00Z_MSC_GDPS_DewPointDepression_IsbL-0100_LatLon0.15_PT090H.grib2 2026-05-05 04:26 404K
20260505T00Z_MSC_GDPS_DewPointDepression_IsbL-0150_LatLon0.15_PT090H.grib2 2026-05-05 04:26 490K
20260505T00Z_MSC_GDPS_DewPointDepression_IsbL-0175_LatLon0.15_PT090H.grib2 2026-05-05 04:26 590K
20260505T00Z_MSC_GDPS_DewPointDepression_IsbL-0200_LatLon0.15_PT090H.grib2 2026-05-05 04:26 699K
20260505T00Z_MSC_GDPS_DewPointDepression_IsbL-0225_LatLon0.15_PT090H.grib2 2026-05-05 04:26 777K
20260505T00Z_MSC_GDPS_DewPointDepression_IsbL-0250_LatLon0.15_PT090H.grib2 2026-05-05 04:26 872K
20260505T00Z_MSC_GDPS_DewPointDepression_IsbL-0275_LatLon0.15_PT090H.grib2 2026-05-05 04:26 894K
20260505T00Z_MSC_GDPS_DewPointDepression_IsbL-0300_LatLon0.15_PT090H.grib2 2026-05-05 04:26 937K
20260505T00Z_MSC_GDPS_DewPointDepression_IsbL-0350_LatLon0.15_PT090H.grib2 2026-05-05 04:26 958K
20260505T00Z_MSC_GDPS_DewPointDepression_IsbL-0400_LatLon0.15_PT090H.grib2 2026-05-05 04:26 1.0M
20260505T00Z_MSC_GDPS_DewPointDepression_IsbL-0450_LatLon0.15_PT090H.grib2 2026-05-05 04:26 1.0M
20260505T00Z_MSC_GDPS_DewPointDepression_IsbL-0500_LatLon0.15_PT090H.grib2 2026-05-05 04:26 1.0M
20260505T00Z_MSC_GDPS_DewPointDepression_IsbL-0550_LatLon0.15_PT090H.grib2 2026-05-05 04:26 1.0M
20260505T00Z_MSC_GDPS_DewPointDepression_IsbL-0600_LatLon0.15_PT090H.grib2 2026-05-05 04:26 1.0M
20260505T00Z_MSC_GDPS_DewPointDepression_IsbL-0650_LatLon0.15_PT090H.grib2 2026-05-05 04:26 1.1M
20260505T00Z_MSC_GDPS_DewPointDepression_IsbL-0700_LatLon0.15_PT090H.grib2 2026-05-05 04:26 1.1M
20260505T00Z_MSC_GDPS_DewPointDepression_IsbL-0750_LatLon0.15_PT090H.grib2 2026-05-05 04:26 1.1M
20260505T00Z_MSC_GDPS_DewPointDepression_IsbL-0800_LatLon0.15_PT090H.grib2 2026-05-05 04:26 1.2M
20260505T00Z_MSC_GDPS_DewPointDepression_IsbL-0850_LatLon0.15_PT090H.grib2 2026-05-05 04:26 1.2M
20260505T00Z_MSC_GDPS_DewPointDepression_IsbL-0875_LatLon0.15_PT090H.grib2 2026-05-05 04:26 1.1M
20260505T00Z_MSC_GDPS_DewPointDepression_IsbL-0900_LatLon0.15_PT090H.grib2 2026-05-05 04:26 1.1M
20260505T00Z_MSC_GDPS_DewPointDepression_IsbL-0925_LatLon0.15_PT090H.grib2 2026-05-05 04:26 1.0M
20260505T00Z_MSC_GDPS_DewPointDepression_IsbL-0950_LatLon0.15_PT090H.grib2 2026-05-05 04:26 1.0M
20260505T00Z_MSC_GDPS_DewPointDepression_IsbL-0970_LatLon0.15_PT090H.grib2 2026-05-05 04:26 1.0M
20260505T00Z_MSC_GDPS_DewPointDepression_IsbL-0985_LatLon0.15_PT090H.grib2 2026-05-05 04:26 1.0M
20260505T00Z_MSC_GDPS_DewPointDepression_IsbL-1000_LatLon0.15_PT090H.grib2 2026-05-05 04:26 1.0M
20260505T00Z_MSC_GDPS_DewPointDepression_IsbL-1015_LatLon0.15_PT090H.grib2 2026-05-05 04:26 922K
20260505T00Z_MSC_GDPS_DewPoint_AGL-2m_LatLon0.15_PT090H.grib2 2026-05-05 04:26 616K
20260505T00Z_MSC_GDPS_DownwardLongwaveRadiationFlux-Accum_Sfc_LatLon0.15_PT090H.grib2 2026-05-05 04:26 712K
20260505T00Z_MSC_GDPS_DownwardShortwaveRadiationFlux-Accum_NTAtm_LatLon0.15_PT090H.grib2 2026-05-05 04:26 254K
20260505T00Z_MSC_GDPS_DownwardShortwaveRadiationFlux-Accum_Sfc_LatLon0.15_PT090H.grib2 2026-05-05 04:26 923K
20260505T00Z_MSC_GDPS_FreezingRain-Accum12h_Sfc_LatLon0.15_PT090H.grib2 2026-05-05 04:26 108K
20260505T00Z_MSC_GDPS_FreezingRain-Accum1h_Sfc_LatLon0.15_PT090H.grib2 2026-05-05 04:26 36K
20260505T00Z_MSC_GDPS_FreezingRain-Accum24h_Sfc_LatLon0.15_PT090H.grib2 2026-05-05 04:26 144K
20260505T00Z_MSC_GDPS_FreezingRain-Accum3h_Sfc_LatLon0.15_PT090H.grib2 2026-05-05 04:26 53K
20260505T00Z_MSC_GDPS_FreezingRain-Accum6h_Sfc_LatLon0.15_PT090H.grib2 2026-05-05 04:26 89K
20260505T00Z_MSC_GDPS_FreezingRain-Accum_Sfc_LatLon0.15_PT090H.grib2 2026-05-05 04:26 348K
20260505T00Z_MSC_GDPS_GeopotentialHeight_IsbL-0001_LatLon0.15_PT090H.grib2 2026-05-05 04:26 451K
20260505T00Z_MSC_GDPS_GeopotentialHeight_IsbL-0005_LatLon0.15_PT090H.grib2 2026-05-05 04:26 492K
20260505T00Z_MSC_GDPS_GeopotentialHeight_IsbL-0010_LatLon0.15_PT090H.grib2 2026-05-05 04:26 476K
20260505T00Z_MSC_GDPS_GeopotentialHeight_IsbL-0020_LatLon0.15_PT090H.grib2 2026-05-05 04:26 413K
20260505T00Z_MSC_GDPS_GeopotentialHeight_IsbL-0030_LatLon0.15_PT090H.grib2 2026-05-05 04:26 421K
20260505T00Z_MSC_GDPS_GeopotentialHeight_IsbL-0050_LatLon0.15_PT090H.grib2 2026-05-05 04:26 576K
20260505T00Z_MSC_GDPS_GeopotentialHeight_IsbL-0100_LatLon0.15_PT090H.grib2 2026-05-05 04:26 616K
20260505T00Z_MSC_GDPS_GeopotentialHeight_IsbL-0150_LatLon0.15_PT090H.grib2 2026-05-05 04:26 637K
20260505T00Z_MSC_GDPS_GeopotentialHeight_IsbL-0175_LatLon0.15_PT090H.grib2 2026-05-05 04:26 640K
20260505T00Z_MSC_GDPS_GeopotentialHeight_IsbL-0200_LatLon0.15_PT090H.grib2 2026-05-05 04:26 645K
20260505T00Z_MSC_GDPS_GeopotentialHeight_IsbL-0225_LatLon0.15_PT090H.grib2 2026-05-05 04:26 641K
20260505T00Z_MSC_GDPS_GeopotentialHeight_IsbL-0250_LatLon0.15_PT090H.grib2 2026-05-05 04:26 644K
20260505T00Z_MSC_GDPS_GeopotentialHeight_IsbL-0275_LatLon0.15_PT090H.grib2 2026-05-05 04:26 646K
20260505T00Z_MSC_GDPS_GeopotentialHeight_IsbL-0300_LatLon0.15_PT090H.grib2 2026-05-05 04:26 638K
20260505T00Z_MSC_GDPS_GeopotentialHeight_IsbL-0350_LatLon0.15_PT090H.grib2 2026-05-05 04:26 636K
20260505T00Z_MSC_GDPS_GeopotentialHeight_IsbL-0400_LatLon0.15_PT090H.grib2 2026-05-05 04:26 626K
20260505T00Z_MSC_GDPS_GeopotentialHeight_IsbL-0450_LatLon0.15_PT090H.grib2 2026-05-05 04:26 615K
20260505T00Z_MSC_GDPS_GeopotentialHeight_IsbL-0500_LatLon0.15_PT090H.grib2 2026-05-05 04:26 537K
20260505T00Z_MSC_GDPS_GeopotentialHeight_IsbL-0550_LatLon0.15_PT090H.grib2 2026-05-05 04:26 530K
20260505T00Z_MSC_GDPS_GeopotentialHeight_IsbL-0600_LatLon0.15_PT090H.grib2 2026-05-05 04:26 692K
20260505T00Z_MSC_GDPS_GeopotentialHeight_IsbL-0650_LatLon0.15_PT090H.grib2 2026-05-05 04:26 693K
20260505T00Z_MSC_GDPS_GeopotentialHeight_IsbL-0700_LatLon0.15_PT090H.grib2 2026-05-05 04:26 688K
20260505T00Z_MSC_GDPS_GeopotentialHeight_IsbL-0750_LatLon0.15_PT090H.grib2 2026-05-05 04:26 695K
20260505T00Z_MSC_GDPS_GeopotentialHeight_IsbL-0800_LatLon0.15_PT090H.grib2 2026-05-05 04:26 710K
20260505T00Z_MSC_GDPS_GeopotentialHeight_IsbL-0850_LatLon0.15_PT090H.grib2 2026-05-05 04:26 720K
20260505T00Z_MSC_GDPS_GeopotentialHeight_IsbL-0875_LatLon0.15_PT090H.grib2 2026-05-05 04:26 721K
20260505T00Z_MSC_GDPS_GeopotentialHeight_IsbL-0900_LatLon0.15_PT090H.grib2 2026-05-05 04:26 729K
20260505T00Z_MSC_GDPS_GeopotentialHeight_IsbL-0925_LatLon0.15_PT090H.grib2 2026-05-05 04:26 736K
20260505T00Z_MSC_GDPS_GeopotentialHeight_IsbL-0950_LatLon0.15_PT090H.grib2 2026-05-05 04:26 741K
20260505T00Z_MSC_GDPS_GeopotentialHeight_IsbL-0970_LatLon0.15_PT090H.grib2 2026-05-05 04:26 754K
20260505T00Z_MSC_GDPS_GeopotentialHeight_IsbL-0985_LatLon0.15_PT090H.grib2 2026-05-05 04:26 770K
20260505T00Z_MSC_GDPS_GeopotentialHeight_IsbL-1000_LatLon0.15_PT090H.grib2 2026-05-05 04:26 790K
20260505T00Z_MSC_GDPS_GeopotentialHeight_IsbL-1015_LatLon0.15_PT090H.grib2 2026-05-05 04:26 808K
20260505T00Z_MSC_GDPS_Humidex_Sfc_LatLon0.15_PT090H.grib2 2026-05-05 04:26 5.3M
20260505T00Z_MSC_GDPS_IcePellets-Accum12h_Sfc_LatLon0.15_PT090H.grib2 2026-05-05 04:26 29K
20260505T00Z_MSC_GDPS_IcePellets-Accum1h_Sfc_LatLon0.15_PT090H.grib2 2026-05-05 04:26 15K
20260505T00Z_MSC_GDPS_IcePellets-Accum24h_Sfc_LatLon0.15_PT090H.grib2 2026-05-05 04:26 52K
20260505T00Z_MSC_GDPS_IcePellets-Accum3h_Sfc_LatLon0.15_PT090H.grib2 2026-05-05 04:26 17K
20260505T00Z_MSC_GDPS_IcePellets-Accum6h_Sfc_LatLon0.15_PT090H.grib2 2026-05-05 04:26 21K
20260505T00Z_MSC_GDPS_IcePellets-Accum_Sfc_LatLon0.15_PT090H.grib2 2026-05-05 04:26 105K
20260505T00Z_MSC_GDPS_KIndex_Sfc_LatLon0.15_PT090H.grib2 2026-05-05 04:26 6.5M
20260505T00Z_MSC_GDPS_LatentHeatNetFlux_Sfc_LatLon0.15_PT090H.grib2 2026-05-05 04:26 699K
20260505T00Z_MSC_GDPS_LiftedIndex-MU-VT_IsbL-0500_LatLon0.15_PT090H.grib2 2026-05-05 04:26 5.4M
20260505T00Z_MSC_GDPS_NetLongwaveRadiationFlux-Accum_Sfc_LatLon0.15_PT090H.grib2 2026-05-05 04:26 950K
20260505T00Z_MSC_GDPS_NetShortwaveRadiationFlux-Accum_Sfc_LatLon0.15_PT090H.grib2 2026-05-05 04:26 907K
20260505T00Z_MSC_GDPS_O3MixingRatio_Sfc_LatLon0.15_PT090H.grib2 2026-05-05 04:46 1.9M
20260505T00Z_MSC_GDPS_O3_EAtm_LatLon0.15_PT090H.grib2 2026-05-05 04:46 2.4M
20260505T00Z_MSC_GDPS_PlanetaryBoundaryLayerHeight_Sfc_LatLon0.15_PT090H.grib2 2026-05-05 04:26 2.4M
20260505T00Z_MSC_GDPS_Precip-Accum12h_Sfc_LatLon0.15_PT090H.grib2 2026-05-05 04:26 4.1M
20260505T00Z_MSC_GDPS_Precip-Accum1h_Sfc_LatLon0.15_PT090H.grib2 2026-05-05 04:26 3.3M
20260505T00Z_MSC_GDPS_Precip-Accum24h_Sfc_LatLon0.15_PT090H.grib2 2026-05-05 04:26 4.6M
20260505T00Z_MSC_GDPS_Precip-Accum3h_Sfc_LatLon0.15_PT090H.grib2 2026-05-05 04:26 3.5M
20260505T00Z_MSC_GDPS_Precip-Accum6h_Sfc_LatLon0.15_PT090H.grib2 2026-05-05 04:26 3.9M
20260505T00Z_MSC_GDPS_Precip-Accum_Sfc_LatLon0.15_PT090H.grib2 2026-05-05 04:26 5.0M
20260505T00Z_MSC_GDPS_PrecipRate_Sfc_LatLon0.15_PT090H.grib2 2026-05-05 04:26 3.0M
20260505T00Z_MSC_GDPS_PrecipType-Instant_Sfc_LatLon0.15_PT090H.grib2 2026-05-05 04:26 1.5M
20260505T00Z_MSC_GDPS_Pressure_MSL_LatLon0.15_PT090H.grib2 2026-05-05 04:26 728K
20260505T00Z_MSC_GDPS_Pressure_PVU-1.5_LatLon0.15_PT090H.grib2 2026-05-05 04:26 5.8M
20260505T00Z_MSC_GDPS_Pressure_PVU-1_LatLon0.15_PT090H.grib2 2026-05-05 04:26 6.0M
20260505T00Z_MSC_GDPS_Pressure_PVU-2_LatLon0.15_PT090H.grib2 2026-05-05 04:26 6.0M
20260505T00Z_MSC_GDPS_Pressure_Sfc_LatLon0.15_PT090H.grib2 2026-05-05 04:26 1.1M
20260505T00Z_MSC_GDPS_RadiativeTemp_Sfc_LatLon0.15_PT090H.grib2 2026-05-05 04:26 663K
20260505T00Z_MSC_GDPS_Rain-Accum12h_Sfc_LatLon0.15_PT090H.grib2 2026-05-05 04:26 2.7M
20260505T00Z_MSC_GDPS_Rain-Accum1h_Sfc_LatLon0.15_PT090H.grib2 2026-05-05 04:26 1.5M
20260505T00Z_MSC_GDPS_Rain-Accum24h_Sfc_LatLon0.15_PT090H.grib2 2026-05-05 04:26 3.2M
20260505T00Z_MSC_GDPS_Rain-Accum3h_Sfc_LatLon0.15_PT090H.grib2 2026-05-05 04:26 1.7M
20260505T00Z_MSC_GDPS_Rain-Accum6h_Sfc_LatLon0.15_PT090H.grib2 2026-05-05 04:26 2.5M
20260505T00Z_MSC_GDPS_Rain-Accum_Sfc_LatLon0.15_PT090H.grib2 2026-05-05 04:26 3.9M
20260505T00Z_MSC_GDPS_RelativeHumidity_AGL-2m_LatLon0.15_PT090H.grib2 2026-05-05 04:26 1.1M
20260505T00Z_MSC_GDPS_RelativeHumidity_IsbL-0010_LatLon0.15_PT090H.grib2 2026-05-05 04:26 211K
20260505T00Z_MSC_GDPS_RelativeHumidity_IsbL-0020_LatLon0.15_PT090H.grib2 2026-05-05 04:26 169K
20260505T00Z_MSC_GDPS_RelativeHumidity_IsbL-0030_LatLon0.15_PT090H.grib2 2026-05-05 04:26 186K
20260505T00Z_MSC_GDPS_RelativeHumidity_IsbL-0050_LatLon0.15_PT090H.grib2 2026-05-05 04:26 335K
20260505T00Z_MSC_GDPS_RelativeHumidity_IsbL-0100_LatLon0.15_PT090H.grib2 2026-05-05 04:26 357K
20260505T00Z_MSC_GDPS_RelativeHumidity_IsbL-0150_LatLon0.15_PT090H.grib2 2026-05-05 04:26 680K
20260505T00Z_MSC_GDPS_RelativeHumidity_IsbL-0175_LatLon0.15_PT090H.grib2 2026-05-05 04:26 801K
20260505T00Z_MSC_GDPS_RelativeHumidity_IsbL-0200_LatLon0.15_PT090H.grib2 2026-05-05 04:26 714K
20260505T00Z_MSC_GDPS_RelativeHumidity_IsbL-0225_LatLon0.15_PT090H.grib2 2026-05-05 04:26 791K
20260505T00Z_MSC_GDPS_RelativeHumidity_IsbL-0250_LatLon0.15_PT090H.grib2 2026-05-05 04:26 859K
20260505T00Z_MSC_GDPS_RelativeHumidity_IsbL-0275_LatLon0.15_PT090H.grib2 2026-05-05 04:26 881K
20260505T00Z_MSC_GDPS_RelativeHumidity_IsbL-0300_LatLon0.15_PT090H.grib2 2026-05-05 04:26 925K
20260505T00Z_MSC_GDPS_RelativeHumidity_IsbL-0350_LatLon0.15_PT090H.grib2 2026-05-05 04:26 943K
20260505T00Z_MSC_GDPS_RelativeHumidity_IsbL-0400_LatLon0.15_PT090H.grib2 2026-05-05 04:26 970K
20260505T00Z_MSC_GDPS_RelativeHumidity_IsbL-0450_LatLon0.15_PT090H.grib2 2026-05-05 04:26 1.0M
20260505T00Z_MSC_GDPS_RelativeHumidity_IsbL-0500_LatLon0.15_PT090H.grib2 2026-05-05 04:26 1.0M
20260505T00Z_MSC_GDPS_RelativeHumidity_IsbL-0550_LatLon0.15_PT090H.grib2 2026-05-05 04:26 1.0M
20260505T00Z_MSC_GDPS_RelativeHumidity_IsbL-0600_LatLon0.15_PT090H.grib2 2026-05-05 04:26 1.1M
20260505T00Z_MSC_GDPS_RelativeHumidity_IsbL-0650_LatLon0.15_PT090H.grib2 2026-05-05 04:26 1.1M
20260505T00Z_MSC_GDPS_RelativeHumidity_IsbL-0700_LatLon0.15_PT090H.grib2 2026-05-05 04:26 1.1M
20260505T00Z_MSC_GDPS_RelativeHumidity_IsbL-0750_LatLon0.15_PT090H.grib2 2026-05-05 04:26 1.2M
20260505T00Z_MSC_GDPS_RelativeHumidity_IsbL-0800_LatLon0.15_PT090H.grib2 2026-05-05 04:26 1.3M
20260505T00Z_MSC_GDPS_RelativeHumidity_IsbL-0850_LatLon0.15_PT090H.grib2 2026-05-05 04:26 1.3M
20260505T00Z_MSC_GDPS_RelativeHumidity_IsbL-0875_LatLon0.15_PT090H.grib2 2026-05-05 04:26 1.3M
20260505T00Z_MSC_GDPS_RelativeHumidity_IsbL-0900_LatLon0.15_PT090H.grib2 2026-05-05 04:26 1.3M
20260505T00Z_MSC_GDPS_RelativeHumidity_IsbL-0925_LatLon0.15_PT090H.grib2 2026-05-05 04:26 1.2M
20260505T00Z_MSC_GDPS_RelativeHumidity_IsbL-0950_LatLon0.15_PT090H.grib2 2026-05-05 04:26 1.2M
20260505T00Z_MSC_GDPS_RelativeHumidity_IsbL-0970_LatLon0.15_PT090H.grib2 2026-05-05 04:26 1.2M
20260505T00Z_MSC_GDPS_RelativeHumidity_IsbL-0985_LatLon0.15_PT090H.grib2 2026-05-05 04:26 1.1M
20260505T00Z_MSC_GDPS_RelativeHumidity_IsbL-1000_LatLon0.15_PT090H.grib2 2026-05-05 04:26 1.1M
20260505T00Z_MSC_GDPS_RelativeHumidity_IsbL-1015_LatLon0.15_PT090H.grib2 2026-05-05 04:26 1.0M
20260505T00Z_MSC_GDPS_RelativeVorticity_IsbL-0200_LatLon0.15_PT090H.grib2 2026-05-05 04:26 1.5M
20260505T00Z_MSC_GDPS_RelativeVorticity_IsbL-0250_LatLon0.15_PT090H.grib2 2026-05-05 04:26 1.3M
20260505T00Z_MSC_GDPS_RelativeVorticity_IsbL-0500_LatLon0.15_PT090H.grib2 2026-05-05 04:26 1.2M
20260505T00Z_MSC_GDPS_RelativeVorticity_IsbL-0700_LatLon0.15_PT090H.grib2 2026-05-05 04:26 1.3M
20260505T00Z_MSC_GDPS_RelativeVorticity_IsbL-0850_LatLon0.15_PT090H.grib2 2026-05-05 04:26 1.6M
20260505T00Z_MSC_GDPS_Runoff-Accum_Sfc_LatLon0.15_PT090H.grib2 2026-05-05 04:26 123K
20260505T00Z_MSC_GDPS_SensibleHeatNetFlux_Sfc_LatLon0.15_PT090H.grib2 2026-05-05 04:26 472K
20260505T00Z_MSC_GDPS_ShowalterIndex_IsbL-0500_LatLon0.15_PT090H.grib2 2026-05-05 04:26 6.2M
20260505T00Z_MSC_GDPS_Snow-Accum12h_Sfc_LatLon0.15_PT090H.grib2 2026-05-05 04:26 1.4M
20260505T00Z_MSC_GDPS_Snow-Accum1h_Sfc_LatLon0.15_PT090H.grib2 2026-05-05 04:26 1.0M
20260505T00Z_MSC_GDPS_Snow-Accum24h_Sfc_LatLon0.15_PT090H.grib2 2026-05-05 04:26 1.5M
20260505T00Z_MSC_GDPS_Snow-Accum3h_Sfc_LatLon0.15_PT090H.grib2 2026-05-05 04:26 949K
20260505T00Z_MSC_GDPS_Snow-Accum6h_Sfc_LatLon0.15_PT090H.grib2 2026-05-05 04:26 1.3M
20260505T00Z_MSC_GDPS_Snow-Accum_Sfc_LatLon0.15_PT090H.grib2 2026-05-05 04:26 2.0M
20260505T00Z_MSC_GDPS_SnowDensity_Sfc_LatLon0.15_PT090H.grib2 2026-05-05 04:26 258K
20260505T00Z_MSC_GDPS_SnowDepth_Sfc_LatLon0.15_PT090H.grib2 2026-05-05 04:26 1.7M
20260505T00Z_MSC_GDPS_SoilTemp_DBS-0to10cm_LatLon0.15_PT090H.grib2 2026-05-05 04:26 512K
20260505T00Z_MSC_GDPS_SoilTemp_Sfc_LatLon0.15_PT090H.grib2 2026-05-05 04:26 580K
20260505T00Z_MSC_GDPS_SoilVolumetricIceContent_Sfc_LatLon0.15_PT090H.grib2 2026-05-05 04:26 182K
20260505T00Z_MSC_GDPS_SoilVolumetricWaterContent_DBS-0to10cm_LatLon0.15_PT090H.grib2 2026-05-05 04:26 597K
20260505T00Z_MSC_GDPS_SoilVolumetricWaterContent_DBS-0to1cm_LatLon0.15_PT090H.grib2 2026-05-05 04:26 654K
20260505T00Z_MSC_GDPS_SpecificHumidity_AGL-120m_LatLon0.15_PT090H.grib2 2026-05-05 04:26 1.1M
20260505T00Z_MSC_GDPS_SpecificHumidity_AGL-2m_LatLon0.15_PT090H.grib2 2026-05-05 04:26 1.2M
20260505T00Z_MSC_GDPS_SpecificHumidity_AGL-40m_LatLon0.15_PT090H.grib2 2026-05-05 04:26 1.1M
20260505T00Z_MSC_GDPS_SpecificHumidity_AGL-80m_LatLon0.15_PT090H.grib2 2026-05-05 04:26 1.1M
20260505T00Z_MSC_GDPS_SpecificHumidity_IsbL-0001_LatLon0.15_PT090H.grib2 2026-05-05 04:26 1.3M
20260505T00Z_MSC_GDPS_SpecificHumidity_IsbL-0005_LatLon0.15_PT090H.grib2 2026-05-05 04:26 1.2M
20260505T00Z_MSC_GDPS_SpecificHumidity_IsbL-0010_LatLon0.15_PT090H.grib2 2026-05-05 04:26 1.3M
20260505T00Z_MSC_GDPS_SpecificHumidity_IsbL-0020_LatLon0.15_PT090H.grib2 2026-05-05 04:26 1.3M
20260505T00Z_MSC_GDPS_SpecificHumidity_IsbL-0030_LatLon0.15_PT090H.grib2 2026-05-05 04:26 1.3M
20260505T00Z_MSC_GDPS_SpecificHumidity_IsbL-0050_LatLon0.15_PT090H.grib2 2026-05-05 04:26 1.3M
20260505T00Z_MSC_GDPS_SpecificHumidity_IsbL-0100_LatLon0.15_PT090H.grib2 2026-05-05 04:26 1.3M
20260505T00Z_MSC_GDPS_SpecificHumidity_IsbL-0150_LatLon0.15_PT090H.grib2 2026-05-05 04:26 1.3M
20260505T00Z_MSC_GDPS_SpecificHumidity_IsbL-0175_LatLon0.15_PT090H.grib2 2026-05-05 04:26 1.3M
20260505T00Z_MSC_GDPS_SpecificHumidity_IsbL-0200_LatLon0.15_PT090H.grib2 2026-05-05 04:26 1.3M
20260505T00Z_MSC_GDPS_SpecificHumidity_IsbL-0225_LatLon0.15_PT090H.grib2 2026-05-05 04:26 1.3M
20260505T00Z_MSC_GDPS_SpecificHumidity_IsbL-0250_LatLon0.15_PT090H.grib2 2026-05-05 04:26 1.2M
20260505T00Z_MSC_GDPS_SpecificHumidity_IsbL-0275_LatLon0.15_PT090H.grib2 2026-05-05 04:26 1.3M
20260505T00Z_MSC_GDPS_SpecificHumidity_IsbL-0300_LatLon0.15_PT090H.grib2 2026-05-05 04:26 1.2M
20260505T00Z_MSC_GDPS_SpecificHumidity_IsbL-0350_LatLon0.15_PT090H.grib2 2026-05-05 04:26 1.2M
20260505T00Z_MSC_GDPS_SpecificHumidity_IsbL-0400_LatLon0.15_PT090H.grib2 2026-05-05 04:26 1.5M
20260505T00Z_MSC_GDPS_SpecificHumidity_IsbL-0450_LatLon0.15_PT090H.grib2 2026-05-05 04:26 1.3M
20260505T00Z_MSC_GDPS_SpecificHumidity_IsbL-0500_LatLon0.15_PT090H.grib2 2026-05-05 04:26 1.5M
20260505T00Z_MSC_GDPS_SpecificHumidity_IsbL-0550_LatLon0.15_PT090H.grib2 2026-05-05 04:26 1.6M
20260505T00Z_MSC_GDPS_SpecificHumidity_IsbL-0600_LatLon0.15_PT090H.grib2 2026-05-05 04:26 1.4M
20260505T00Z_MSC_GDPS_SpecificHumidity_IsbL-0650_LatLon0.15_PT090H.grib2 2026-05-05 04:26 1.5M
20260505T00Z_MSC_GDPS_SpecificHumidity_IsbL-0700_LatLon0.15_PT090H.grib2 2026-05-05 04:26 1.6M
20260505T00Z_MSC_GDPS_SpecificHumidity_IsbL-0750_LatLon0.15_PT090H.grib2 2026-05-05 04:26 1.7M
20260505T00Z_MSC_GDPS_SpecificHumidity_IsbL-0800_LatLon0.15_PT090H.grib2 2026-05-05 04:26 1.9M
20260505T00Z_MSC_GDPS_SpecificHumidity_IsbL-0850_LatLon0.15_PT090H.grib2 2026-05-05 04:26 2.0M
20260505T00Z_MSC_GDPS_SpecificHumidity_IsbL-0875_LatLon0.15_PT090H.grib2 2026-05-05 04:26 2.0M
20260505T00Z_MSC_GDPS_SpecificHumidity_IsbL-0900_LatLon0.15_PT090H.grib2 2026-05-05 04:26 2.0M
20260505T00Z_MSC_GDPS_SpecificHumidity_IsbL-0925_LatLon0.15_PT090H.grib2 2026-05-05 04:26 1.9M
20260505T00Z_MSC_GDPS_SpecificHumidity_IsbL-0950_LatLon0.15_PT090H.grib2 2026-05-05 04:26 1.6M
20260505T00Z_MSC_GDPS_SpecificHumidity_IsbL-0970_LatLon0.15_PT090H.grib2 2026-05-05 04:26 1.6M
20260505T00Z_MSC_GDPS_SpecificHumidity_IsbL-0985_LatLon0.15_PT090H.grib2 2026-05-05 04:26 1.5M
20260505T00Z_MSC_GDPS_SpecificHumidity_IsbL-1000_LatLon0.15_PT090H.grib2 2026-05-05 04:26 1.5M
20260505T00Z_MSC_GDPS_SpecificHumidity_IsbL-1015_LatLon0.15_PT090H.grib2 2026-05-05 04:26 1.5M
20260505T00Z_MSC_GDPS_SpecificHumidity_Sfc_LatLon0.15_PT090H.grib2 2026-05-05 04:26 677K
20260505T00Z_MSC_GDPS_Thickness_IsbL-0850to0700_LatLon0.15_PT090H.grib2 2026-05-05 04:26 476K
20260505T00Z_MSC_GDPS_Thickness_IsbL-1000to0500_LatLon0.15_PT090H.grib2 2026-05-05 04:26 377K
20260505T00Z_MSC_GDPS_Thickness_IsbL-1000to0850_LatLon0.15_PT090H.grib2 2026-05-05 04:26 497K
20260505T00Z_MSC_GDPS_TotalCloudCover_Sfc_LatLon0.15_PT090H.grib2 2026-05-05 04:26 822K
20260505T00Z_MSC_GDPS_TotalTotalsIndex_Sfc_LatLon0.15_PT090H.grib2 2026-05-05 04:26 6.2M
20260505T00Z_MSC_GDPS_UVIndex-ClearSky-Max24h_Sfc_LatLon0.15_PT090H.grib2 2026-05-05 04:46 2.2M
20260505T00Z_MSC_GDPS_UVIndex-ClearSky_Sfc_LatLon0.15_PT090H.grib2 2026-05-05 04:46 1.0M
20260505T00Z_MSC_GDPS_UVIndex-Max24h_Sfc_LatLon0.15_PT090H.grib2 2026-05-05 04:46 3.2M
20260505T00Z_MSC_GDPS_UVIndex_Sfc_LatLon0.15_PT090H.grib2 2026-05-05 04:46 1.5M
20260505T00Z_MSC_GDPS_UpwardLongwaveRadiationFlux_NTAtm_LatLon0.15_PT090H.grib2 2026-05-05 04:26 832K
20260505T00Z_MSC_GDPS_VerticalVelocity_IsbL-0200_LatLon0.15_PT090H.grib2 2026-05-05 04:26 939K
20260505T00Z_MSC_GDPS_VerticalVelocity_IsbL-0250_LatLon0.15_PT090H.grib2 2026-05-05 04:26 1.1M
20260505T00Z_MSC_GDPS_VerticalVelocity_IsbL-0500_LatLon0.15_PT090H.grib2 2026-05-05 04:26 1.3M
20260505T00Z_MSC_GDPS_VerticalVelocity_IsbL-0600_LatLon0.15_PT090H.grib2 2026-05-05 04:26 1.3M
20260505T00Z_MSC_GDPS_VerticalVelocity_IsbL-0700_LatLon0.15_PT090H.grib2 2026-05-05 04:26 1.4M
20260505T00Z_MSC_GDPS_VerticalVelocity_IsbL-0850_LatLon0.15_PT090H.grib2 2026-05-05 04:26 1.3M
20260505T00Z_MSC_GDPS_WindChill_Sfc_LatLon0.15_PT090H.grib2 2026-05-05 04:26 5.3M
20260505T00Z_MSC_GDPS_WindDir_AGL-10m_LatLon0.15_PT090H.grib2 2026-05-05 04:26 1.3M
20260505T00Z_MSC_GDPS_WindDir_AGL-120m_LatLon0.15_PT090H.grib2 2026-05-05 04:26 1.3M
20260505T00Z_MSC_GDPS_WindDir_AGL-40m_LatLon0.15_PT090H.grib2 2026-05-05 04:26 1.4M
20260505T00Z_MSC_GDPS_WindDir_AGL-80m_LatLon0.15_PT090H.grib2 2026-05-05 04:26 1.4M
20260505T00Z_MSC_GDPS_WindDir_IsbL-0001_LatLon0.15_PT090H.grib2 2026-05-05 04:26 663K
20260505T00Z_MSC_GDPS_WindDir_IsbL-0005_LatLon0.15_PT090H.grib2 2026-05-05 04:26 818K
20260505T00Z_MSC_GDPS_WindDir_IsbL-0010_LatLon0.15_PT090H.grib2 2026-05-05 04:26 846K
20260505T00Z_MSC_GDPS_WindDir_IsbL-0020_LatLon0.15_PT090H.grib2 2026-05-05 04:26 941K
20260505T00Z_MSC_GDPS_WindDir_IsbL-0030_LatLon0.15_PT090H.grib2 2026-05-05 04:26 944K
20260505T00Z_MSC_GDPS_WindDir_IsbL-0050_LatLon0.15_PT090H.grib2 2026-05-05 04:26 970K
20260505T00Z_MSC_GDPS_WindDir_IsbL-0100_LatLon0.15_PT090H.grib2 2026-05-05 04:26 1.0M
20260505T00Z_MSC_GDPS_WindDir_IsbL-0150_LatLon0.15_PT090H.grib2 2026-05-05 04:26 1.0M
20260505T00Z_MSC_GDPS_WindDir_IsbL-0175_LatLon0.15_PT090H.grib2 2026-05-05 04:26 1.0M
20260505T00Z_MSC_GDPS_WindDir_IsbL-0200_LatLon0.15_PT090H.grib2 2026-05-05 04:26 1.1M
20260505T00Z_MSC_GDPS_WindDir_IsbL-0225_LatLon0.15_PT090H.grib2 2026-05-05 04:26 1.1M
20260505T00Z_MSC_GDPS_WindDir_IsbL-0250_LatLon0.15_PT090H.grib2 2026-05-05 04:26 1.1M
20260505T00Z_MSC_GDPS_WindDir_IsbL-0275_LatLon0.15_PT090H.grib2 2026-05-05 04:26 1.2M
20260505T00Z_MSC_GDPS_WindDir_IsbL-0300_LatLon0.15_PT090H.grib2 2026-05-05 04:26 1.2M
20260505T00Z_MSC_GDPS_WindDir_IsbL-0350_LatLon0.15_PT090H.grib2 2026-05-05 04:26 1.2M
20260505T00Z_MSC_GDPS_WindDir_IsbL-0400_LatLon0.15_PT090H.grib2 2026-05-05 04:26 1.3M
20260505T00Z_MSC_GDPS_WindDir_IsbL-0450_LatLon0.15_PT090H.grib2 2026-05-05 04:26 1.3M
20260505T00Z_MSC_GDPS_WindDir_IsbL-0500_LatLon0.15_PT090H.grib2 2026-05-05 04:26 1.4M
20260505T00Z_MSC_GDPS_WindDir_IsbL-0550_LatLon0.15_PT090H.grib2 2026-05-05 04:26 1.4M
20260505T00Z_MSC_GDPS_WindDir_IsbL-0600_LatLon0.15_PT090H.grib2 2026-05-05 04:26 1.4M
20260505T00Z_MSC_GDPS_WindDir_IsbL-0650_LatLon0.15_PT090H.grib2 2026-05-05 04:26 1.5M
20260505T00Z_MSC_GDPS_WindDir_IsbL-0700_LatLon0.15_PT090H.grib2 2026-05-05 04:26 1.6M
20260505T00Z_MSC_GDPS_WindDir_IsbL-0750_LatLon0.15_PT090H.grib2 2026-05-05 04:26 1.7M
20260505T00Z_MSC_GDPS_WindDir_IsbL-0800_LatLon0.15_PT090H.grib2 2026-05-05 04:26 1.8M
20260505T00Z_MSC_GDPS_WindDir_IsbL-0850_LatLon0.15_PT090H.grib2 2026-05-05 04:26 1.9M
20260505T00Z_MSC_GDPS_WindDir_IsbL-0875_LatLon0.15_PT090H.grib2 2026-05-05 04:26 1.9M
20260505T00Z_MSC_GDPS_WindDir_IsbL-0900_LatLon0.15_PT090H.grib2 2026-05-05 04:26 2.0M
20260505T00Z_MSC_GDPS_WindDir_IsbL-0925_LatLon0.15_PT090H.grib2 2026-05-05 04:26 2.0M
20260505T00Z_MSC_GDPS_WindDir_IsbL-0950_LatLon0.15_PT090H.grib2 2026-05-05 04:26 2.0M
20260505T00Z_MSC_GDPS_WindDir_IsbL-0970_LatLon0.15_PT090H.grib2 2026-05-05 04:26 2.0M
20260505T00Z_MSC_GDPS_WindDir_IsbL-0985_LatLon0.15_PT090H.grib2 2026-05-05 04:26 2.0M
20260505T00Z_MSC_GDPS_WindDir_IsbL-1000_LatLon0.15_PT090H.grib2 2026-05-05 04:26 2.1M
20260505T00Z_MSC_GDPS_WindDir_IsbL-1015_LatLon0.15_PT090H.grib2 2026-05-05 04:26 2.0M
20260505T00Z_MSC_GDPS_WindGust-Max_AGL-10m_LatLon0.15_PT090H.grib2 2026-05-05 04:26 2.2M
20260505T00Z_MSC_GDPS_WindGust-Min_AGL-10m_LatLon0.15_PT090H.grib2 2026-05-05 04:26 2.2M
20260505T00Z_MSC_GDPS_WindGust_AGL-10m_LatLon0.15_PT090H.grib2 2026-05-05 04:26 2.2M
20260505T00Z_MSC_GDPS_WindSpeed_AGL-10m_LatLon0.15_PT090H.grib2 2026-05-05 04:26 1.1M
20260505T00Z_MSC_GDPS_WindSpeed_AGL-120m_LatLon0.15_PT090H.grib2 2026-05-05 04:26 1.2M
20260505T00Z_MSC_GDPS_WindSpeed_AGL-40m_LatLon0.15_PT090H.grib2 2026-05-05 04:26 1.2M
20260505T00Z_MSC_GDPS_WindSpeed_AGL-80m_LatLon0.15_PT090H.grib2 2026-05-05 04:26 1.2M
20260505T00Z_MSC_GDPS_WindSpeed_IsbL-0001_LatLon0.15_PT090H.grib2 2026-05-05 04:26 653K
20260505T00Z_MSC_GDPS_WindSpeed_IsbL-0005_LatLon0.15_PT090H.grib2 2026-05-05 04:26 701K
20260505T00Z_MSC_GDPS_WindSpeed_IsbL-0010_LatLon0.15_PT090H.grib2 2026-05-05 04:26 634K
20260505T00Z_MSC_GDPS_WindSpeed_IsbL-0020_LatLon0.15_PT090H.grib2 2026-05-05 04:26 668K
20260505T00Z_MSC_GDPS_WindSpeed_IsbL-0030_LatLon0.15_PT090H.grib2 2026-05-05 04:26 675K
20260505T00Z_MSC_GDPS_WindSpeed_IsbL-0050_LatLon0.15_PT090H.grib2 2026-05-05 04:26 904K
20260505T00Z_MSC_GDPS_WindSpeed_IsbL-0100_LatLon0.15_PT090H.grib2 2026-05-05 04:26 1.1M
20260505T00Z_MSC_GDPS_WindSpeed_IsbL-0150_LatLon0.15_PT090H.grib2 2026-05-05 04:26 943K
20260505T00Z_MSC_GDPS_WindSpeed_IsbL-0175_LatLon0.15_PT090H.grib2 2026-05-05 04:26 1.0M
20260505T00Z_MSC_GDPS_WindSpeed_IsbL-0200_LatLon0.15_PT090H.grib2 2026-05-05 04:26 1.1M
20260505T00Z_MSC_GDPS_WindSpeed_IsbL-0225_LatLon0.15_PT090H.grib2 2026-05-05 04:26 1.1M
20260505T00Z_MSC_GDPS_WindSpeed_IsbL-0250_LatLon0.15_PT090H.grib2 2026-05-05 04:26 1.1M
20260505T00Z_MSC_GDPS_WindSpeed_IsbL-0275_LatLon0.15_PT090H.grib2 2026-05-05 04:26 1.1M
20260505T00Z_MSC_GDPS_WindSpeed_IsbL-0300_LatLon0.15_PT090H.grib2 2026-05-05 04:26 1.1M
20260505T00Z_MSC_GDPS_WindSpeed_IsbL-0350_LatLon0.15_PT090H.grib2 2026-05-05 04:26 1.1M
20260505T00Z_MSC_GDPS_WindSpeed_IsbL-0400_LatLon0.15_PT090H.grib2 2026-05-05 04:26 1.1M
20260505T00Z_MSC_GDPS_WindSpeed_IsbL-0450_LatLon0.15_PT090H.grib2 2026-05-05 04:26 1.1M
20260505T00Z_MSC_GDPS_WindSpeed_IsbL-0500_LatLon0.15_PT090H.grib2 2026-05-05 04:26 1.1M
20260505T00Z_MSC_GDPS_WindSpeed_IsbL-0550_LatLon0.15_PT090H.grib2 2026-05-05 04:26 1.1M
20260505T00Z_MSC_GDPS_WindSpeed_IsbL-0600_LatLon0.15_PT090H.grib2 2026-05-05 04:26 1.1M
20260505T00Z_MSC_GDPS_WindSpeed_IsbL-0650_LatLon0.15_PT090H.grib2 2026-05-05 04:26 1.5M
20260505T00Z_MSC_GDPS_WindSpeed_IsbL-0700_LatLon0.15_PT090H.grib2 2026-05-05 04:26 1.5M
20260505T00Z_MSC_GDPS_WindSpeed_IsbL-0750_LatLon0.15_PT090H.grib2 2026-05-05 04:26 1.6M
20260505T00Z_MSC_GDPS_WindSpeed_IsbL-0800_LatLon0.15_PT090H.grib2 2026-05-05 04:26 1.7M
20260505T00Z_MSC_GDPS_WindSpeed_IsbL-0850_LatLon0.15_PT090H.grib2 2026-05-05 04:26 1.8M
20260505T00Z_MSC_GDPS_WindSpeed_IsbL-0875_LatLon0.15_PT090H.grib2 2026-05-05 04:26 1.8M
20260505T00Z_MSC_GDPS_WindSpeed_IsbL-0900_LatLon0.15_PT090H.grib2 2026-05-05 04:26 1.8M
20260505T00Z_MSC_GDPS_WindSpeed_IsbL-0925_LatLon0.15_PT090H.grib2 2026-05-05 04:26 1.9M
20260505T00Z_MSC_GDPS_WindSpeed_IsbL-0950_LatLon0.15_PT090H.grib2 2026-05-05 04:26 1.9M
20260505T00Z_MSC_GDPS_WindSpeed_IsbL-0970_LatLon0.15_PT090H.grib2 2026-05-05 04:26 1.9M
20260505T00Z_MSC_GDPS_WindSpeed_IsbL-0985_LatLon0.15_PT090H.grib2 2026-05-05 04:26 1.9M
20260505T00Z_MSC_GDPS_WindSpeed_IsbL-1000_LatLon0.15_PT090H.grib2 2026-05-05 04:26 1.8M
20260505T00Z_MSC_GDPS_WindSpeed_IsbL-1015_LatLon0.15_PT090H.grib2 2026-05-05 04:26 1.8M
20260505T00Z_MSC_GDPS_WindU_AGL-10m_LatLon0.15_PT090H.grib2 2026-05-05 04:26 1.6M
20260505T00Z_MSC_GDPS_WindU_AGL-120m_LatLon0.15_PT090H.grib2 2026-05-05 04:26 1.0M
20260505T00Z_MSC_GDPS_WindU_AGL-40m_LatLon0.15_PT090H.grib2 2026-05-05 04:26 968K
20260505T00Z_MSC_GDPS_WindU_AGL-80m_LatLon0.15_PT090H.grib2 2026-05-05 04:26 1.0M
20260505T00Z_MSC_GDPS_WindU_IsbL-0001_LatLon0.15_PT090H.grib2 2026-05-05 04:26 510K
20260505T00Z_MSC_GDPS_WindU_IsbL-0005_LatLon0.15_PT090H.grib2 2026-05-05 04:26 701K
20260505T00Z_MSC_GDPS_WindU_IsbL-0010_LatLon0.15_PT090H.grib2 2026-05-05 04:26 708K
20260505T00Z_MSC_GDPS_WindU_IsbL-0020_LatLon0.15_PT090H.grib2 2026-05-05 04:26 735K
20260505T00Z_MSC_GDPS_WindU_IsbL-0030_LatLon0.15_PT090H.grib2 2026-05-05 04:26 745K
20260505T00Z_MSC_GDPS_WindU_IsbL-0050_LatLon0.15_PT090H.grib2 2026-05-05 04:26 767K
20260505T00Z_MSC_GDPS_WindU_IsbL-0100_LatLon0.15_PT090H.grib2 2026-05-05 04:26 924K
20260505T00Z_MSC_GDPS_WindU_IsbL-0150_LatLon0.15_PT090H.grib2 2026-05-05 04:26 1.0M
20260505T00Z_MSC_GDPS_WindU_IsbL-0175_LatLon0.15_PT090H.grib2 2026-05-05 04:26 1.0M
20260505T00Z_MSC_GDPS_WindU_IsbL-0200_LatLon0.15_PT090H.grib2 2026-05-05 04:26 841K
20260505T00Z_MSC_GDPS_WindU_IsbL-0225_LatLon0.15_PT090H.grib2 2026-05-05 04:26 850K
20260505T00Z_MSC_GDPS_WindU_IsbL-0250_LatLon0.15_PT090H.grib2 2026-05-05 04:26 850K
20260505T00Z_MSC_GDPS_WindU_IsbL-0275_LatLon0.15_PT090H.grib2 2026-05-05 04:26 877K
20260505T00Z_MSC_GDPS_WindU_IsbL-0300_LatLon0.15_PT090H.grib2 2026-05-05 04:26 867K
20260505T00Z_MSC_GDPS_WindU_IsbL-0350_LatLon0.15_PT090H.grib2 2026-05-05 04:26 883K
20260505T00Z_MSC_GDPS_WindU_IsbL-0400_LatLon0.15_PT090H.grib2 2026-05-05 04:26 890K
20260505T00Z_MSC_GDPS_WindU_IsbL-0450_LatLon0.15_PT090H.grib2 2026-05-05 04:26 1.1M
20260505T00Z_MSC_GDPS_WindU_IsbL-0500_LatLon0.15_PT090H.grib2 2026-05-05 04:26 1.1M
20260505T00Z_MSC_GDPS_WindU_IsbL-0550_LatLon0.15_PT090H.grib2 2026-05-05 04:26 1.1M
20260505T00Z_MSC_GDPS_WindU_IsbL-0600_LatLon0.15_PT090H.grib2 2026-05-05 04:26 1.2M
20260505T00Z_MSC_GDPS_WindU_IsbL-0650_LatLon0.15_PT090H.grib2 2026-05-05 04:26 1.2M
20260505T00Z_MSC_GDPS_WindU_IsbL-0700_LatLon0.15_PT090H.grib2 2026-05-05 04:26 1.2M
20260505T00Z_MSC_GDPS_WindU_IsbL-0750_LatLon0.15_PT090H.grib2 2026-05-05 04:26 1.3M
20260505T00Z_MSC_GDPS_WindU_IsbL-0800_LatLon0.15_PT090H.grib2 2026-05-05 04:26 1.4M
20260505T00Z_MSC_GDPS_WindU_IsbL-0850_LatLon0.15_PT090H.grib2 2026-05-05 04:26 1.4M
20260505T00Z_MSC_GDPS_WindU_IsbL-0875_LatLon0.15_PT090H.grib2 2026-05-05 04:26 1.5M
20260505T00Z_MSC_GDPS_WindU_IsbL-0900_LatLon0.15_PT090H.grib2 2026-05-05 04:26 1.5M
20260505T00Z_MSC_GDPS_WindU_IsbL-0925_LatLon0.15_PT090H.grib2 2026-05-05 04:26 1.4M
20260505T00Z_MSC_GDPS_WindU_IsbL-0950_LatLon0.15_PT090H.grib2 2026-05-05 04:26 1.4M
20260505T00Z_MSC_GDPS_WindU_IsbL-0970_LatLon0.15_PT090H.grib2 2026-05-05 04:26 1.4M
20260505T00Z_MSC_GDPS_WindU_IsbL-0985_LatLon0.15_PT090H.grib2 2026-05-05 04:26 1.4M
20260505T00Z_MSC_GDPS_WindU_IsbL-1000_LatLon0.15_PT090H.grib2 2026-05-05 04:26 1.7M
20260505T00Z_MSC_GDPS_WindU_IsbL-1015_LatLon0.15_PT090H.grib2 2026-05-05 04:26 1.6M
20260505T00Z_MSC_GDPS_WindV_AGL-10m_LatLon0.15_PT090H.grib2 2026-05-05 04:26 1.3M
20260505T00Z_MSC_GDPS_WindV_AGL-120m_LatLon0.15_PT090H.grib2 2026-05-05 04:26 1.0M
20260505T00Z_MSC_GDPS_WindV_AGL-40m_LatLon0.15_PT090H.grib2 2026-05-05 04:26 969K
20260505T00Z_MSC_GDPS_WindV_AGL-80m_LatLon0.15_PT090H.grib2 2026-05-05 04:26 1.0M
20260505T00Z_MSC_GDPS_WindV_IsbL-0001_LatLon0.15_PT090H.grib2 2026-05-05 04:26 792K
20260505T00Z_MSC_GDPS_WindV_IsbL-0005_LatLon0.15_PT090H.grib2 2026-05-05 04:26 871K
20260505T00Z_MSC_GDPS_WindV_IsbL-0010_LatLon0.15_PT090H.grib2 2026-05-05 04:26 804K
20260505T00Z_MSC_GDPS_WindV_IsbL-0020_LatLon0.15_PT090H.grib2 2026-05-05 04:26 855K
20260505T00Z_MSC_GDPS_WindV_IsbL-0030_LatLon0.15_PT090H.grib2 2026-05-05 04:26 862K
20260505T00Z_MSC_GDPS_WindV_IsbL-0050_LatLon0.15_PT090H.grib2 2026-05-05 04:26 1.0M
20260505T00Z_MSC_GDPS_WindV_IsbL-0100_LatLon0.15_PT090H.grib2 2026-05-05 04:26 855K
20260505T00Z_MSC_GDPS_WindV_IsbL-0150_LatLon0.15_PT090H.grib2 2026-05-05 04:26 1.0M
20260505T00Z_MSC_GDPS_WindV_IsbL-0175_LatLon0.15_PT090H.grib2 2026-05-05 04:26 815K
20260505T00Z_MSC_GDPS_WindV_IsbL-0200_LatLon0.15_PT090H.grib2 2026-05-05 04:26 841K
20260505T00Z_MSC_GDPS_WindV_IsbL-0225_LatLon0.15_PT090H.grib2 2026-05-05 04:26 909K
20260505T00Z_MSC_GDPS_WindV_IsbL-0250_LatLon0.15_PT090H.grib2 2026-05-05 04:26 908K
20260505T00Z_MSC_GDPS_WindV_IsbL-0275_LatLon0.15_PT090H.grib2 2026-05-05 04:26 930K
20260505T00Z_MSC_GDPS_WindV_IsbL-0300_LatLon0.15_PT090H.grib2 2026-05-05 04:26 920K
20260505T00Z_MSC_GDPS_WindV_IsbL-0350_LatLon0.15_PT090H.grib2 2026-05-05 04:26 934K
20260505T00Z_MSC_GDPS_WindV_IsbL-0400_LatLon0.15_PT090H.grib2 2026-05-05 04:26 879K
20260505T00Z_MSC_GDPS_WindV_IsbL-0450_LatLon0.15_PT090H.grib2 2026-05-05 04:26 882K
20260505T00Z_MSC_GDPS_WindV_IsbL-0500_LatLon0.15_PT090H.grib2 2026-05-05 04:26 887K
20260505T00Z_MSC_GDPS_WindV_IsbL-0550_LatLon0.15_PT090H.grib2 2026-05-05 04:26 1.1M
20260505T00Z_MSC_GDPS_WindV_IsbL-0600_LatLon0.15_PT090H.grib2 2026-05-05 04:26 1.1M
20260505T00Z_MSC_GDPS_WindV_IsbL-0650_LatLon0.15_PT090H.grib2 2026-05-05 04:26 1.2M
20260505T00Z_MSC_GDPS_WindV_IsbL-0700_LatLon0.15_PT090H.grib2 2026-05-05 04:26 1.2M
20260505T00Z_MSC_GDPS_WindV_IsbL-0750_LatLon0.15_PT090H.grib2 2026-05-05 04:26 1.3M
20260505T00Z_MSC_GDPS_WindV_IsbL-0800_LatLon0.15_PT090H.grib2 2026-05-05 04:26 1.4M
20260505T00Z_MSC_GDPS_WindV_IsbL-0850_LatLon0.15_PT090H.grib2 2026-05-05 04:26 1.4M
20260505T00Z_MSC_GDPS_WindV_IsbL-0875_LatLon0.15_PT090H.grib2 2026-05-05 04:26 1.5M
20260505T00Z_MSC_GDPS_WindV_IsbL-0900_LatLon0.15_PT090H.grib2 2026-05-05 04:26 1.5M
20260505T00Z_MSC_GDPS_WindV_IsbL-0925_LatLon0.15_PT090H.grib2 2026-05-05 04:26 1.5M
20260505T00Z_MSC_GDPS_WindV_IsbL-0950_LatLon0.15_PT090H.grib2 2026-05-05 04:26 1.4M
20260505T00Z_MSC_GDPS_WindV_IsbL-0970_LatLon0.15_PT090H.grib2 2026-05-05 04:26 1.4M
20260505T00Z_MSC_GDPS_WindV_IsbL-0985_LatLon0.15_PT090H.grib2 2026-05-05 04:26 1.4M
20260505T00Z_MSC_GDPS_WindV_IsbL-1000_LatLon0.15_PT090H.grib2 2026-05-05 04:26 1.4M
20260505T00Z_MSC_GDPS_WindV_IsbL-1015_LatLon0.15_PT090H.grib2 2026-05-05 04:26 1.3M